Wind_Speed
36 37 39 40 41 41 42 43 43 44 45 44 42 43 43 43 42 42 42 41 41 42 43 44 45 45 44 44 42 41 40 38 36 35 33 32 30 30
36 37 38 40 41 42 43 44 45 46 46 46 46 44 45 44 44 44 43 42 41 42 43 44 45 45 45 45 44 42 41 39 37 36 34 32 31 30
36 37 37 39 40 42 43 44 45 47 47 47 49 48 47 47 45 45 44 44 43 42 42 43 45 45 45 45 45 43 42 40 38 37 35 33 31 30
36 37 37 38 39 40 42 43 44 46 47 48 49 50 49 49 48 46 46 45 44 43 43 43 44 44 45 44 45 44 42 40 39 37 35 33 31 30
36 36 36 37 38 39 40 42 43 45 47 48 48 50 50 50 50 49 47 46 45 43 43 43 43 43 44 44 43 43 42 41 39 37 35 33 31 30
36 35 35 36 37 38 39 40 42 44 45 47 48 49 50 50 50 49 49 47 46 45 44 44 44 44 44 45 44 44 43 42 40 38 36 33 31 30
35 35 35 35 36 37 38 40 41 43 45 47 48 50 50 51 51 50 49 48 47 46 45 45 44 44 44 44 45 44 44 43 41 39 36 34 32 30
35 35 35 34 35 36 38 40 42 43 45 47 48 50 51 52 52 52 51 50 49 47 47 46 44 44 44 45 44 44 43 43 42 39 36 34 32 30
34 34 34 34 35 35 37 39 41 43 45 47 49 50 51 52 53 53 53 52 50 49 48 47 46 44 44 44 44 44 42 41 40 39 36 34 33 31
32 33 33 34 35 36 37 38 40 42 45 47 49 51 53 54 54 54 54 53 52 50 49 48 48 46 44 43 44 44 42 41 39 39 37 35 33 32
31 31 32 33 34 35 36 38 39 41 44 46 49 51 53 55 56 56 56 55 53 52 50 48 47 47 45 44 43 43 43 42 41 40 38 36 34 33
31 32 32 33 34 35 35 36 37 39 42 45 48 50 53 55 57 58 58 57 55 53 51 50 47 47 46 44 44 44 44 43 42 41 39 37 35 33
30 30 31 31 32 33 33 34 35 38 41 43 46 49 53 55 57 59 59 59 57 55 53 50 49 47 46 45 44 44 44 44 43 41 40 38 36 34
29 29 29 29 29 31 32 33 35 37 39 42 45 48 51 53 56 59 60 60 59 57 55 53 51 48 46 45 45 44 44 44 43 42 41 39 38 35
27 27 27 28 28 28 29 30 32 35 38 41 43 47 50 53 56 58 60 61 61 59 57 55 52 49 46 46 46 46 45 44 44 43 42 41 39 36
27 26 26 26 27 26 27 29 30 32 35 38 41 45 49 52 55 58 60 61 62 61 59 56 53 51 48 46 46 47 47 46 45 45 44 42 40 37
26 25 25 25 25 25 26 27 29 30 32 35 39 43 47 51 54 58 60 62 62 62 60 58 55 52 50 47 47 48 48 48 47 46 45 43 41 38
25 24 24 24 23 24 24 25 25 26 27 30 35 40 44 49 52 56 60 61 62 62 61 59 56 53 52 49 48 48 49 49 48 47 46 44 42 39
24 22 22 21 21 22 22 22 21 21 22 24 28 34 40 45 49 54 58 60 61 61 61 60 58 54 51 49 48 49 49 49 49 48 47 45 43 40
22 21 20 20 19 20 20 19 17 17 18 20 23 28 34 40 45 51 55 58 59 60 60 60 58 56 51 49 47 48 49 49 48 48 48 46 44 41
21 19 19 19 18 17 17 16 14 13 14 16 18 23 30 36 41 47 52 55 57 57 58 58 57 57 55 51 49 48 48 49 50 49 48 47 45 42
20 19 18 17 16 14 14 13 12 11 10 12 14 19 26 32 38 43 48 52 55 54 55 56 57 56 55 53 49 48 47 48 49 51 50 48 45 42
20 18 17 16 14 13 12 11 11 9 8 11 14 18 23 29 35 41 45 49 51 52 53 54 56 55 54 53 51 49 47 47 49 50 50 48 45 44
Wind_Direction
281 276 272 268 263 259 255 252 249 247 246 243 241 239 239 238 237 235 234 232 228 227 226 225 224 224 224 223 221 222 224 224 226 230 232 234 236 239
282 277 272 267 263 259 255 252 249 246 245 243 240 238 237 237 236 236 236 234 231 228 226 225 225 225 225 225 223 222 223 224 226 228 231 234 236 238
282 277 273 269 264 260 255 252 248 246 244 243 241 238 237 236 235 235 235 235 233 230 228 227 225 224 223 224 223 224 224 224 226 227 230 234 236 238
282 277 272 268 264 260 256 252 249 245 243 241 241 239 237 236 235 234 234 234 234 233 230 227 225 223 224 224 224 224 224 224 226 228 231 233 235 237
282 277 272 268 264 261 257 253 249 245 242 240 240 239 238 237 235 234 234 234 233 233 232 230 225 223 223 222 222 223 223 224 225 227 230 231 233 235
282 277 273 269 264 261 257 253 249 246 242 240 238 238 238 237 235 233 233 233 232 232 233 232 228 224 223 221 222 222 222 222 224 226 228 229 231 233
282 278 274 270 266 261 258 255 251 247 243 240 238 237 237 236 235 233 233 232 231 231 232 231 230 227 223 222 222 221 221 221 222 223 225 227 229 230
284 280 276 272 268 264 259 255 252 248 244 241 238 237 236 236 235 233 232 232 231 230 231 230 230 228 226 223 221 220 219 220 220 221 222 224 226 227
286 282 278 274 271 266 261 256 252 249 245 242 239 236 235 235 234 233 231 231 231 230 230 230 229 228 227 224 221 219 217 218 218 219 220 222 223 224
287 283 280 276 272 268 263 258 254 251 246 243 240 237 234 233 233 232 230 229 229 229 229 230 229 228 227 224 221 218 216 215 215 216 218 219 220 221
289 286 282 278 275 271 266 260 256 252 247 244 241 237 234 232 231 230 228 228 228 227 227 228 227 227 226 224 220 218 216 214 214 215 216 217 218 217
291 287 283 279 276 273 268 263 257 252 249 245 241 238 235 232 230 229 227 227 227 226 225 226 226 226 226 224 221 218 215 213 212 213 214 215 215 214
293 289 286 282 278 273 268 263 258 254 250 247 243 239 235 233 230 228 226 226 226 226 225 225 225 225 225 223 221 218 214 211 211 212 213 213 213 212
295 291 288 285 281 276 271 265 260 256 253 248 245 239 235 232 229 227 225 224 224 224 224 224 224 224 223 223 221 218 215 211 210 211 212 212 211 211
298 294 290 288 284 281 275 269 264 259 255 250 245 240 234 231 228 225 223 222 221 221 222 221 222 221 221 221 219 217 214 212 210 210 211 211 211 212
301 296 292 289 286 283 279 274 269 263 257 251 244 238 232 229 226 223 221 219 219 218 219 219 221 221 219 219 217 216 213 211 210 210 210 211 211 212
302 299 297 293 290 288 285 280 274 269 261 252 243 236 231 227 224 221 219 217 217 217 217 218 218 219 218 217 216 214 211 210 210 210 210 210 210 211
304 303 301 296 293 292 290 286 279 271 263 253 242 235 229 224 221 218 216 215 215 215 216 216 216 216 217 217 216 213 211 209 210 210 210 210 210 211
305 303 303 301 298 297 295 291 284 275 263 251 240 232 225 220 218 214 212 211 212 213 214 215 216 215 216 217 217 214 211 210 211 211 211 211 211 212
305 302 302 302 300 300 298 294 288 279 263 250 237 225 219 215 213 210 209 208 209 211 212 213 214 214 214 214 215 214 211 210 210 210 211 212 213 214
305 301 300 301 300 299 298 296 293 283 263 246 232 219 212 208 206 205 205 204 206 208 209 210 212 213 214 214 214 213 210 209 210 210 210 211 213 214
308 302 299 300 297 297 298 296 292 284 262 237 220 208 203 201 201 201 202 203 204 205 207 208 209 212 213 213 212 212 210 209 209 210 210 211 212 213
307 302 296 293 291 288 292 293 286 276 255 220 206 199 194 195 197 198 199 201 202 203 204 205 207 209 211 212 211 210 208 207 208 210 210 211 212 214
Height
5754 5752 5751 5750 5751 5752 5753 5755 5758 5760 5762 5765 5769 5773 5776 5780 5784 5788 5792 5796 5801 5806 5811 5817 5822 5828 5834 5839 5845 5850 5856 5861 5866 5871 5875 5879 5882 5885
5742 5740 5739 5738 5738 5739 5740 5742 5745 5748 5751 5754 5757 5761 5765 5770 5774 5778 5783 5787 5792 5797 5802 5808 5813 5819 5825 5831 5836 5842 5848 5853 5858 5863 5868 5872 5876 5879
5730 5728 5726 5725 5725 5726 5727 5729 5732 5735 5739 5742 5745 5749 5754 5759 5764 5769 5773 5778 5783 5788 5793 5798 5804 5810 5816 5822 5828 5834 5840 5846 5851 5856 5861 5865 5869 5872
5717 5715 5714 5713 5712 5713 5714 5716 5719 5722 5726 5730 5733 5738 5742 5748 5753 5759 5764 5768 5773 5778 5784 5789 5795 5801 5807 5813 5819 5825 5831 5837 5843 5848 5853 5858 5862 5865
5705 5702 5701 5700 5700 5700 5701 5703 5706 5709 5713 5718 5722 5726 5731 5736 5742 5748 5753 5759 5764 5769 5774 5780 5785 5792 5798 5804 5810 5816 5823 5829 5835 5840 5846 5850 5855 5859
5692 5690 5689 5688 5688 5688 5689 5691 5693 5696 5700 5705 5709 5714 5719 5724 5730 5737 5743 5748 5754 5760 5765 5770 5776 5782 5789 5795 5801 5808 5814 5820 5827 5833 5838 5843 5848 5852
5680 5678 5676 5676 5675 5676 5677 5678 5680 5684 5687 5692 5697 5702 5707 5712 5719 5725 5731 5737 5744 5750 5756 5762 5768 5774 5779 5786 5792 5798 5805 5812 5818 5824 5830 5836 5841 5845
5667 5665 5664 5663 5663 5663 5664 5665 5668 5670 5674 5679 5684 5689 5695 5700 5706 5713 5720 5727 5734 5741 5746 5752 5759 5765 5770 5777 5783 5789 5796 5803 5809 5816 5822 5828 5834 5838
5656 5653 5652 5651 5650 5650 5651 5652 5654 5657 5660 5664 5670 5676 5682 5688 5695 5702 5708 5715 5723 5730 5736 5742 5749 5756 5762 5768 5774 5781 5788 5794 5801 5808 5815 5821 5827 5832
5645 5642 5640 5638 5637 5637 5637 5639 5640 5643 5646 5650 5656 5662 5667 5673 5681 5688 5696 5703 5711 5718 5726 5733 5740 5747 5753 5759 5765 5772 5779 5787 5794 5801 5808 5814 5820 5825
5634 5631 5629 5627 5625 5624 5624 5625 5626 5629 5631 5635 5641 5646 5653 5660 5667 5675 5684 5692 5699 5708 5715 5723 5730 5737 5744 5750 5757 5764 5771 5779 5786 5793 5800 5807 5813 5818
5623 5620 5617 5615 5613 5611 5610 5611 5613 5615 5617 5621 5626 5631 5638 5645 5652 5661 5670 5679 5688 5696 5705 5713 5720 5727 5735 5742 5749 5756 5763 5770 5778 5785 5793 5799 5806 5812
5613 5609 5606 5603 5601 5599 5598 5599 5600 5601 5603 5607 5611 5616 5623 5630 5638 5648 5657 5667 5676 5686 5694 5702 5710 5718 5725 5733 5740 5748 5755 5763 5771 5778 5785 5793 5800 5806
5603 5599 5596 5593 5590 5588 5586 5586 5586 5587 5589 5592 5596 5602 5608 5616 5624 5633 5643 5653 5663 5673 5682 5691 5700 5708 5716 5724 5731 5739 5747 5755 5763 5771 5779 5786 5793 5799
5593 5589 5586 5582 5580 5577 5575 5573 5573 5574 5575 5578 5581 5586 5593 5600 5608 5618 5628 5639 5649 5660 5670 5680 5689 5697 5706 5714 5722 5730 5738 5747 5756 5764 5772 5779 5786 5792
5584 5580 5576 5573 5570 5567 5564 5562 5561 5561 5561 5563 5566 5570 5577 5584 5593 5603 5614 5625 5636 5648 5659 5669 5678 5687 5696 5705 5713 5722 5730 5739 5748 5756 5764 5772 5779 5786
5576 5572 5568 5564 5561 5558 5555 5552 5550 5548 5548 5548 5551 5555 5562 5570 5579 5589 5600 5612 5624 5636 5647 5658 5668 5677 5686 5695 5703 5713 5722 5731 5740 5748 5756 5764 5772 5779
5568 5563 5560 5556 5552 5549 5546 5543 5539 5537 5536 5535 5537 5542 5548 5556 5565 5576 5587 5600 5613 5625 5636 5647 5658 5667 5677 5686 5695 5704 5714 5723 5732 5741 5749 5757 5765 5772
5560 5556 5552 5549 5545 5542 5538 5534 5531 5528 5526 5526 5527 5530 5536 5544 5553 5564 5576 5589 5601 5614 5626 5637 5648 5658 5668 5678 5687 5697 5706 5715 5724 5733 5742 5750 5758 5765
5553 5549 5546 5542 5539 5535 5532 5528 5525 5522 5520 5519 5520 5523 5527 5535 5544 5555 5566 5580 5592 5604 5616 5628 5639 5651 5661 5671 5680 5689 5698 5707 5716 5725 5734 5742 5750 5758
5546 5543 5540 5537 5533 5530 5527 5523 5520 5518 5516 5515 5515 5517 5522 5528 5537 5547 5559 5571 5583 5595 5608 5620 5632 5642 5651 5661 5671 5680 5689 5698 5708 5717 5726 5734 5743 5750
5540 5537 5534 5531 5529 5526 5523 5520 5517 5515 5513 5513 5513 5515 5519 5525 5533 5542 5553 5565 5577 5588 5600 5611 5621 5632 5643 5654 5664 5672 5682 5691 5699 5708 5718 5727 5735 5743
5534 5531 5529 5526 5524 5522 5520 5518 5516 5514 5513 5512 5513 5515 5519 5524 5531 5540 5549 5560 5571 5581 5592 5603 5614 5625 5635 5646 5656 5666 5674 5683 5692 5701 5711 5719 5728 5735